Wetbulb
50.43 51.31 51.14 51.64 52.13 53.09 53.39 53.13 53.49 54.77 56.42 57.92 64.26 67.54 67.81 68.56 68.25 68.57 68.54 70.93 71.40 71.25 70.85 71.19 71.63 69.65 68.82 68.17 68.32 68.21 67.93 66.97 66.41 66.85 65.99 66.53 65.87 64.76 63.66 63.28 62.45 62.12 61.91
50.07 50.34 50.39 50.44 50.66 51.27 51.77 52.46 53.13 53.63 54.61 56.60 57.80 64.25 67.14 66.87 67.65 68.21 67.86 68.37 70.72 70.90 70.65 70.80 71.69 70.24 69.12 68.47 68.11 68.91 68.08 66.36 66.51 66.61 66.63 65.88 65.44 65.04 64.39 63.04 62.48 62.13 61.87
50.23 49.51 49.68 49.42 49.90 50.35 51.28 51.49 51.97 53.08 54.04 55.97 56.55 58.47 63.54 65.97 66.48 67.20 68.12 68.05 67.99 69.78 70.24 70.94 71.87 70.90 69.68 68.74 68.13 68.83 68.02 66.90 66.68 66.29 67.01 65.53 65.25 64.80 64.63 63.34 62.71 62.65 62.15
50.07 49.05 49.46 49.32 49.66 50.05 50.49 50.30 50.14 50.95 51.65 52.86 54.13 56.64 59.21 64.36 65.11 66.34 67.18 68.35 67.15 66.74 68.64 69.92 71.13 71.46 70.41 69.25 68.75 69.10 68.26 67.75 66.36 66.63 66.60 65.63 65.07 64.63 64.86 64.34 63.12 62.64 62.57
50.30 48.39 49.06 48.99 49.08 48.94 48.85 49.35 48.97 48.88 48.88 50.03 51.54 52.55 53.68 57.88 64.81 65.84 65.52 66.21 67.45 66.97 65.91 68.40 69.62 70.04 71.29 69.81 69.30 69.57 68.71 67.24 67.01 66.35 65.98 65.80 65.35 64.77 64.50 64.37 63.72 63.12 62.90
48.84 48.32 48.80 48.40 48.72 47.77 47.36 47.44 46.96 48.10 48.78 49.98 52.07 52.49 53.38 55.29 57.89 62.89 64.59 65.53 66.19 66.86 65.98 65.10 66.41 67.39 70.19 70.68 69.87 69.56 68.40 67.99 67.22 66.46 66.06 65.96 65.60 65.04 64.59 64.32 63.84 63.44 62.80
48.10 47.27 47.57 47.64 47.62 46.77 46.25 46.98 46.69 46.43 46.70 48.25 48.53 49.05 50.92 52.66 53.42 56.74 62.44 64.64 65.14 66.14 66.14 65.22 64.92 64.90 67.10 69.71 69.21 69.96 69.54 68.67 67.66 66.81 66.25 66.43 65.91 65.59 65.05 64.13 63.41 63.27 63.03
46.98 47.32 45.76 46.08 46.14 45.62 45.51 45.76 45.55 44.70 45.67 46.97 44.77 45.16 43.12 46.74 50.61 53.47 57.82 62.16 63.73 65.10 65.04 65.34 64.78 63.73 63.55 66.36 66.35 68.18 68.37 68.48 68.09 67.20 66.82 66.87 66.38 65.82 65.40 64.52 63.90 63.85 63.16
46.40 46.14 45.67 45.01 44.56 44.49 43.98 44.30 44.59 44.04 43.09 44.84 45.35 44.76 41.59 40.89 45.25 48.88 51.20 52.78 60.71 62.68 63.98 64.40 64.51 63.84 63.83 65.13 66.01 66.33 65.95 67.82 68.59 67.84 67.57 67.05 66.71 66.25 65.97 65.28 64.55 64.24 63.39
45.33 45.90 45.50 44.95 44.37 43.98 43.05 43.31 45.80 43.55 42.96 42.43 44.25 47.19 45.72 45.77 42.76 42.67 49.01 51.21 53.50 60.45 62.01 63.47 64.15 64.37 64.48 64.75 65.28 65.31 65.80 66.70 67.70 68.29 67.74 67.34 66.80 66.35 66.39 66.26 65.53 64.13 63.88
45.08 45.58 45.00 44.36 43.88 43.74 43.57 43.65 43.63 43.34 44.05 43.33 43.49 43.65 43.63 44.51 45.71 45.03 43.73 46.80 50.57 55.55 61.25 62.39 63.51 63.64 64.51 63.86 63.83 64.36 65.77 66.04 66.69 67.39 68.01 67.52 66.78 66.49 66.69 67.04 65.78 64.34 63.44
43.57 44.72 45.35 44.03 43.91 43.67 43.73 43.61 43.95 43.71 44.04 44.34 43.92 44.49 43.51 42.43 43.01 44.51 44.62 45.70 46.64 49.10 53.17 61.46 62.20 62.93 63.76 63.12 63.80 64.04 65.32 65.47 66.19 66.71 66.83 67.02 66.94 66.63 66.50 66.40 65.33 64.31 63.10
41.78 42.61 43.79 43.32 43.12 43.35 43.57 43.67 42.99 43.44 43.96 43.96 43.99 44.43 44.35 43.87 44.81 46.13 45.72 45.08 45.87 47.57 49.57 60.26 61.31 62.67 62.79 62.76 62.51 63.30 64.29 64.85 65.44 65.82 65.85 66.11 66.38 66.86 65.95 65.74 64.97 64.12 62.79
41.80 43.60 43.58 43.83 43.51 44.20 43.76 43.05 43.12 43.47 44.18 44.49 43.95 44.18 43.96 43.92 45.32 46.55 45.30 44.80 44.44 44.97 46.32 50.90 60.31 61.21 61.87 62.01 62.33 63.74 63.25 64.36 64.70 64.85 64.97 65.02 65.43 65.97 65.86 65.98 64.85 63.28 61.62
44.54 43.93 43.60 43.18 43.49 43.48 43.42 43.06 42.68 42.78 44.34 44.76 43.98 44.27 44.55 45.35 46.78 46.80 46.78 47.22 46.17 42.41 43.38 49.89 57.26 60.22 60.88 61.96 62.17 62.62 62.29 63.66 64.44 63.96 63.50 63.50 64.51 65.09 65.13 65.17 63.18 61.47 61.30
43.08 43.15 43.00 42.97 42.83 43.03 42.72 42.40 42.42 42.98 43.63 43.04 43.57 44.04 44.57 44.48 45.03 46.09 47.53 48.77 49.70 46.94 43.94 51.70 56.66 59.14 60.05 61.00 62.07 60.72 61.14 62.65 63.58 63.55 62.00 61.54 63.36 63.50 63.80 63.00 61.54 61.23 59.59
42.49 42.51 42.82 42.95 42.90 42.25 42.52 41.53 41.47 42.78 42.99 43.58 43.53 43.97 44.31 44.93 44.43 46.04 48.53 50.32 50.35 49.73 46.49 51.61 53.32 57.26 58.75 58.94 59.24 59.02 60.34 61.10 61.92 63.07 62.05 61.19 61.74 62.03 62.08 61.03 60.33 59.95 58.49
42.15 42.39 42.64 42.82 42.95 42.38 41.72 40.99 41.69 43.39 42.70 42.98 44.12 44.52 44.38 46.42 46.91 47.67 50.36 49.92 50.45 51.07 51.48 49.43 52.77 54.28 57.53 58.12 57.30 56.01 58.62 59.95 60.30 62.87 62.45 61.52 60.87 60.76 60.23 59.55 59.13 58.23 57.64
41.90 42.26 42.75 41.72 42.38 42.75 42.44 42.16 42.19 42.90 43.13 44.06 45.04 44.48 46.69 47.13 48.09 48.71 49.48 50.74 51.57 52.69 53.14 51.90 51.91 55.50 57.41 56.82 55.17 55.69 56.72 57.52 59.29 61.72 62.14 61.28 60.67 60.08 59.31 58.59 57.69 57.09 56.34
41.56 41.24 42.02 42.50 42.91 43.15 42.95 42.70 42.60 42.33 44.15 44.91 45.55 46.26 45.79 46.88 47.94 49.88 50.34 50.77 52.18 52.78 52.65 51.73 50.94 55.73 55.64 55.74 55.45 53.87 53.72 57.02 56.63 60.56 60.57 59.83 60.49 59.89 59.05 58.33 57.38 56.21 54.72
41.36 41.88 42.38 42.62 42.42 42.84 43.49 41.91 42.85 43.04 43.75 44.44 45.75 45.17 46.92 49.32 51.99 53.34 53.74 52.30 53.04 52.40 52.00 51.57 51.10 55.40 54.12 54.06 53.19 54.97 54.32 56.93 57.34 58.04 56.96 57.02 56.92 56.81 57.29 58.25 56.35 55.52 54.13
40.40 41.34 41.22 41.75 41.68 43.34 47.62 49.13 47.31 43.63 44.21 44.48 44.15 44.60 46.77 49.27 50.09 53.19 55.58 56.73 55.09 52.30 51.46 51.38 51.45 53.96 54.14 54.59 54.88 55.37 55.18 55.76 54.01 57.88 55.27 54.37 55.15 53.67 55.09 54.24 55.76 55.39 54.22
39.37 39.64 40.54 40.72 40.75 41.26 47.25 47.96 48.95 44.42 43.34 44.26 44.62 44.86 46.41 48.20 50.10 49.84 54.21 56.69 57.62 57.06 55.50 52.61 53.14 55.63 54.81 56.27 55.69 56.22 55.77 56.06 54.73 56.73 54.89 52.11 53.04 51.15 53.69 54.31 55.59 55.05 54.37
38.94 39.28 40.13 40.69 40.27 41.81 47.29 47.77 47.95 43.68 42.73 44.60 45.13 45.83 46.96 47.26 48.64 50.30 52.52 54.58 55.33 55.96 56.64 56.05 53.83 55.73 57.73 58.67 57.48 58.31 57.49 57.30 57.18 56.59 55.51 50.63 51.53 49.60 51.74 51.89 54.91 54.65 54.11
38.49 39.43 40.52 40.36 40.18 40.81 46.93 47.65 47.22 41.96 42.60 43.76 45.50 47.03 47.45 47.40 50.20 52.05 51.56 52.00 54.19 55.34 58.46 58.23 57.17 57.14 59.55 59.38 59.20 58.92 57.05 56.41 54.87 54.69 55.01 51.75 51.08 50.09 49.15 48.98 52.61 53.86 53.36
39.47 40.70 40.89 41.03 44.04 40.88 45.91 47.35 47.38 42.65 41.45 43.03 44.92 45.83 48.09 48.07 50.51 51.83 51.16 52.29 53.19 55.08 56.16 56.43 56.57 57.34 59.72 59.66 59.58 59.73 58.59 55.57 54.91 53.43 54.42 51.17 51.44 50.94 47.10 48.16 50.03 51.64 51.18
MSLP
1019.14 1018.89 1018.72 1018.43 1018.17 1017.88 1017.66 1017.34 1016.92 1016.33 1015.67 1015.09 1014.82 1014.67 1014.71 1014.87 1015.00 1015.01 1014.90 1014.72 1014.75 1014.54 1014.65 1014.54 1015.68 1015.85 1014.95 1015.54 1016.45 1017.29 1017.75 1018.35 1018.64 1018.78 1018.91 1019.29 1019.64 1019.93 1020.21 1020.41 1020.57 1020.60 1020.77
1019.49 1019.34 1019.09 1018.75 1018.46 1018.26 1018.08 1017.88 1017.54 1016.99 1016.40 1015.70 1015.06 1014.66 1014.42 1014.39 1014.53 1014.68 1014.52 1014.45 1014.35 1014.32 1014.21 1014.53 1014.56 1015.55 1015.65 1014.88 1015.55 1016.64 1017.28 1017.83 1018.37 1018.59 1018.70 1019.07 1019.43 1019.72 1020.14 1020.26 1020.49 1020.68 1020.79
1019.61 1019.54 1019.37 1019.21 1018.83 1018.48 1018.23 1018.02 1017.73 1017.28 1016.92 1016.13 1015.61 1014.83 1014.29 1014.13 1014.18 1014.18 1014.31 1014.10 1013.99 1014.01 1013.97 1013.92 1014.47 1014.52 1015.53 1015.29 1014.93 1015.89 1016.66 1017.48 1018.06 1018.37 1018.55 1018.76 1019.26 1019.53 1019.94 1020.21 1020.49 1020.60 1020.59
1019.62 1019.65 1019.59 1019.32 1018.95 1018.82 1018.59 1018.31 1018.03 1017.76 1017.31 1016.84 1016.20 1015.48 1014.76 1013.91 1013.73 1013.61 1013.55 1013.62 1013.41 1013.50 1013.60 1013.63 1013.95 1014.09 1014.68 1015.27 1015.08 1015.22 1015.96 1016.72 1017.45 1017.94 1018.26 1018.57 1019.00 1019.35 1019.64 1020.05 1020.32 1020.50 1020.45
1019.64 1019.76 1019.66 1019.41 1019.11 1018.98 1018.83 1018.71 1018.56 1018.22 1017.84 1017.34 1016.67 1015.83 1015.06 1014.30 1013.67 1013.00 1012.84 1012.88 1012.98 1012.74 1012.84 1013.09 1013.30 1013.88 1013.85 1014.62 1015.00 1015.02 1015.37 1016.07 1016.94 1017.53 1017.92 1018.31 1018.72 1019.12 1019.45 1019.84 1020.13 1020.27 1020.40
1019.65 1019.62 1019.49 1019.31 1019.11 1019.16 1019.00 1018.87 1018.60 1018.37 1018.16 1017.75 1016.99 1016.11 1015.32 1014.24 1013.50 1013.12 1012.59 1012.12 1012.05 1012.22 1012.23 1012.35 1012.70 1013.26 1013.55 1013.80 1014.40 1014.78 1014.99 1015.45 1016.30 1017.07 1017.56 1017.86 1018.36 1018.81 1019.22 1019.65 1019.87 1020.14 1020.28
1019.53 1019.43 1019.30 1019.05 1018.92 1019.05 1018.98 1018.90 1018.63 1018.52 1018.25 1017.79 1017.35 1016.69 1015.84 1015.03 1013.87 1013.37 1012.47 1011.89 1011.56 1011.40 1011.74 1011.75 1011.91 1012.46 1012.91 1013.19 1013.72 1014.23 1014.57 1014.95 1015.55 1016.48 1017.03 1017.44 1017.89 1018.36 1018.86 1019.36 1019.64 1020.01 1020.18
1019.27 1019.05 1019.05 1019.11 1018.86 1018.88 1018.83 1018.76 1018.69 1018.61 1018.34 1017.97 1017.86 1017.39 1016.01 1015.22 1014.46 1013.09 1012.27 1011.38 1011.05 1011.05 1011.02 1011.10 1011.19 1011.53 1012.02 1012.52 1013.15 1013.70 1014.03 1014.42 1014.76 1015.81 1016.53 1016.93 1017.42 1017.90 1018.41 1018.94 1019.42 1019.74 1019.96
1018.96 1018.84 1018.74 1018.72 1018.68 1018.77 1018.77 1018.63 1018.55 1018.46 1018.25 1018.02 1017.87 1018.03 1017.18 1016.07 1015.35 1014.06 1012.95 1012.33 1011.16 1010.29 1010.24 1010.32 1010.35 1010.76 1011.02 1011.71 1012.47 1013.05 1013.59 1013.93 1014.20 1014.99 1015.91 1016.48 1017.00 1017.51 1018.09 1018.66 1019.07 1019.42 1019.74
1018.68 1018.55 1018.49 1018.44 1018.40 1018.38 1018.38 1018.28 1018.16 1018.00 1017.92 1017.72 1017.32 1017.29 1017.45 1017.22 1016.57 1014.19 1012.70 1012.13 1011.74 1010.23 1009.44 1009.46 1009.63 1009.76 1010.11 1010.91 1011.65 1012.38 1013.09 1013.61 1013.88 1014.24 1015.30 1015.90 1016.59 1017.08 1017.71 1018.26 1018.74 1019.11 1019.46
1018.47 1018.34 1018.25 1018.15 1018.16 1018.07 1017.97 1017.79 1017.70 1017.61 1017.45 1017.29 1017.01 1016.91 1016.93 1016.78 1016.48 1015.61 1013.53 1011.62 1011.41 1010.53 1009.28 1008.80 1008.80 1009.05 1009.30 1010.17 1010.85 1011.64 1012.50 1013.17 1013.57 1013.88 1014.61 1015.30 1016.10 1016.71 1017.27 1017.87 1018.38 1018.74 1019.15
1018.51 1018.23 1017.95 1017.87 1017.73 1017.69 1017.61 1017.42 1017.19 1016.97 1016.73 1016.49 1016.29 1016.45 1016.55 1016.59 1015.97 1015.32 1014.20 1012.64 1012.23 1010.76 1010.84 1008.38 1008.16 1008.33 1007.99 1009.34 1009.84 1010.84 1011.87 1012.54 1013.36 1013.77 1014.05 1014.81 1015.63 1016.32 1016.90 1017.49 1018.06 1018.46 1019.03
1018.21 1017.99 1017.78 1017.67 1017.56 1017.27 1017.07 1016.88 1016.64 1016.34 1016.11 1015.84 1015.56 1015.57 1015.81 1015.96 1015.63 1014.75 1013.92 1012.25 1011.87 1010.03 1010.31 1007.98 1007.32 1007.39 1007.29 1008.28 1008.98 1010.08 1011.19 1011.87 1012.93 1013.53 1013.70 1014.47 1015.19 1016.07 1016.68 1017.08 1017.78 1018.30 1018.84
1017.81 1017.56 1017.44 1017.19 1017.02 1016.70 1016.42 1016.19 1016.08 1015.69 1015.37 1015.02 1014.96 1015.14 1014.96 1014.67 1014.40 1013.75 1013.40 1012.68 1011.31 1010.37 1009.81 1009.02 1007.26 1006.47 1006.96 1007.06 1008.06 1009.23 1010.49 1011.24 1012.36 1013.18 1013.46 1014.13 1014.88 1015.78 1016.39 1016.92 1017.60 1018.19 1018.66
1017.30 1017.00 1016.69 1016.55 1016.30 1015.99 1015.81 1015.52 1015.27 1014.96 1014.66 1014.51 1014.66 1014.48 1014.02 1013.30 1012.91 1012.36 1012.03 1011.83 1010.90 1009.87 1009.18 1007.93 1005.97 1005.77 1006.16 1006.59 1007.40 1008.59 1009.65 1010.73 1011.85 1012.71 1013.22 1013.80 1014.68 1015.47 1016.14 1016.93 1017.50 1018.13 1018.59
1016.61 1016.30 1016.08 1015.83 1015.57 1015.30 1015.07 1014.77 1014.41 1014.08 1013.96 1013.85 1013.79 1013.54 1012.90 1012.21 1011.63 1010.98 1010.17 1009.93 1009.33 1009.39 1008.49 1006.63 1005.38 1004.73 1005.41 1006.19 1007.19 1007.94 1008.96 1010.41 1011.46 1012.34 1012.86 1013.45 1014.39 1015.18 1015.95 1016.87 1017.52 1018.04 1018.60
1015.90 1015.70 1015.44 1015.18 1014.83 1014.41 1014.19 1013.87 1013.59 1013.27 1013.13 1012.88 1012.64 1012.35 1011.47 1010.51 1009.89 1009.06 1007.99 1007.42 1007.41 1007.68 1007.48 1005.93 1006.30 1006.21 1004.69 1005.71 1007.06 1007.72 1008.69 1010.09 1011.16 1011.93 1012.56 1013.11 1014.13 1014.85 1015.76 1016.66 1017.52 1018.02 1018.48
1015.38 1015.17 1014.76 1014.40 1014.09 1013.66 1013.37 1013.16 1012.77 1012.33 1012.22 1011.99 1011.57 1011.07 1009.93 1008.68 1007.47 1007.28 1006.53 1006.37 1006.57 1006.25 1006.18 1005.58 1005.36 1005.63 1004.46 1005.07 1005.71 1007.18 1008.45 1009.59 1010.67 1011.57 1012.27 1012.93 1013.88 1014.62 1015.55 1016.45 1017.30 1017.93 1018.35
1014.84 1014.52 1014.12 1013.79 1013.41 1013.02 1012.48 1012.25 1011.84 1011.49 1011.31 1010.93 1010.60 1009.77 1008.46 1007.46 1006.18 1005.54 1005.38 1004.97 1004.66 1004.71 1004.61 1004.64 1004.28 1004.04 1003.53 1004.36 1005.40 1006.74 1007.94 1009.30 1010.43 1011.27 1012.12 1012.68 1013.64 1014.43 1015.24 1016.22 1017.08 1017.79 1018.18
1014.22 1013.86 1013.59 1013.15 1012.66 1012.16 1011.61 1011.23 1010.92 1010.73 1010.43 1009.88 1009.30 1008.52 1007.54 1006.42 1005.50 1004.40 1003.94 1003.81 1003.63 1003.19 1003.94 1004.07 1004.04 1002.71 1002.32 1003.74 1004.94 1006.24 1007.88 1008.82 1010.00 1010.87 1011.90 1012.56 1013.57 1014.45 1015.06 1016.00 1016.87 1017.59 1018.07
1013.67 1013.44 1013.02 1012.44 1011.88 1011.47 1010.91 1010.38 1010.12 1009.84 1009.47 1008.87 1008.21 1007.32 1006.40 1005.10 1003.94 1003.03 1001.97 1002.08 1002.41 1002.51 1002.80 1002.97 1002.74 1002.23 1001.90 1003.26 1004.28 1005.65 1006.85 1008.36 1009.53 1010.39 1011.35 1012.58 1013.49 1014.50 1015.17 1015.82 1016.63 1017.36 1017.96
1013.14 1012.86 1012.53 1012.02 1011.34 1010.84 1010.26 1009.69 1009.27 1008.95 1008.38 1008.01 1007.60 1006.85 1005.47 1004.23 1002.91 1002.09 1001.06 1000.62 1001.23 1001.52 1002.06 1002.33 1002.02 1001.57 1001.07 1002.41 1003.56 1004.78 1005.89 1007.41 1008.76 1010.16 1010.83 1012.31 1013.15 1014.42 1015.03 1015.54 1016.24 1017.09 1017.71
1012.70 1012.51 1011.98 1011.44 1010.79 1010.27 1009.66 1009.03 1008.48 1008.06 1007.71 1007.24 1006.97 1006.50 1005.14 1003.84 1002.84 1002.02 1000.56 999.73 1000.04 1000.23 1000.82 1001.09 1001.59 1000.43 1000.77 1001.50 1002.58 1003.91 1005.01 1006.16 1006.94 1008.53 1010.22 1012.06 1013.16 1014.24 1014.97 1015.31 1016.01 1016.81 1017.49
1012.44 1011.97 1011.66 1010.96 1010.37 1009.67 1008.99 1008.24 1007.73 1007.33 1007.05 1006.34 1005.81 1005.35 1004.90 1003.40 1002.34 1001.17 1000.28 999.01 998.35 998.80 999.12 999.72 1000.72 1001.46 1000.34 1000.94 1001.29 1002.51 1004.08 1005.77 1007.16 1008.34 1009.37 1011.75 1012.95 1013.99 1014.86 1015.18 1015.89 1016.60 1017.29
1011.90 1011.54 1011.00 1010.44 1009.92 1009.13 1008.35 1007.57 1006.95 1006.84 1006.66 1005.92 1004.96 1004.60 1004.14 1003.25 1002.03 1000.86 999.97 999.01 998.09 997.83 998.59 999.08 999.39 1000.36 1000.28 1000.50 1000.88 1002.17 1003.40 1004.96 1006.45 1007.87 1008.87 1010.15 1012.19 1013.78 1014.89 1015.51 1016.04 1016.48 1017.19
1011.26 1010.79 1010.32 1009.82 1009.15 1008.55 1007.85 1007.13 1006.57 1006.26 1006.00 1005.46 1004.80 1004.03 1003.39 1002.40 1001.08 1000.24 999.48 998.27 997.66 997.05 997.80 998.61 998.96 999.64 1000.02 1000.09 1000.40 1001.06 1002.20 1003.62 1005.13 1007.38 1008.29 1009.54 1011.14 1012.61 1014.97 1015.83 1016.21 1016.61 1017.33
Wind_Speed
5 5 5 5 5 6 7 8 8 9 9 8 5 6 6 6 7 5 3 14 17 16 17 19 20 18 21 20 15 15 14 11 12 12 10 9 8 7 6 5 5 3 2
5 5 5 5 5 5 5 6 8 9 9 9 8 5 6 5 5 5 4 5 15 16 18 19 22 19 18 22 20 16 16 14 13 12 12 10 10 9 7 7 6 4 3
5 5 4 5 4 5 6 5 5 6 7 9 10 8 5 6 5 8 7 7 7 16 19 18 19 21 20 20 21 19 18 15 14 14 13 12 10 9 9 7 6 5 4
6 5 4 5 4 4 4 5 5 5 6 7 9 10 10 5 7 9 9 8 7 8 13 18 18 22 23 21 21 22 21 17 17 15 14 13 12 11 10 9 7 6 6
5 4 4 5 5 4 4 5 5 5 6 7 9 11 11 11 7 9 11 12 12 8 8 16 18 18 21 24 22 23 22 19 18 17 16 14 13 12 11 9 8 8 6
5 4 4 4 4 4 4 5 5 4 5 8 10 11 12 12 10 10 11 11 11 13 9 12 12 10 20 23 23 24 23 23 20 18 17 16 14 13 11 10 9 8 6
5 5 4 4 4 3 4 5 4 6 4 4 7 9 11 14 17 12 11 10 11 12 13 8 9 9 10 22 23 25 26 24 22 20 19 17 16 14 13 11 9 8 6
6 5 5 4 4 4 4 4 4 4 3 4 4 8 8 10 11 11 11 10 12 10 11 15 12 13 12 10 14 24 24 25 24 22 20 18 16 15 14 12 11 9 7
6 5 5 4 5 3 4 4 5 5 5 4 4 3 6 7 13 16 14 12 16 9 10 13 13 16 15 12 13 18 19 24 23 24 21 18 17 15 14 13 11 9 8
6 5 5 5 4 4 4 4 6 5 5 7 6 5 4 7 13 15 12 12 13 16 14 10 14 14 16 12 16 18 21 21 22 22 22 20 18 16 15 15 12 10 8
5 6 6 6 5 4 4 6 6 6 7 9 6 2 4 8 11 12 15 13 9 13 15 14 13 14 16 13 12 15 23 21 17 21 21 20 18 17 15 14 13 11 9
4 6 6 5 6 5 6 5 7 8 8 7 6 6 5 6 11 12 12 14 14 15 16 14 11 11 15 12 16 21 24 22 19 18 19 18 18 17 16 14 13 11 9
4 5 6 5 5 5 6 6 6 8 9 8 10 7 5 7 11 12 12 13 13 12 12 14 11 10 11 14 14 21 25 24 21 20 19 17 16 15 15 15 14 12 10
4 6 6 6 6 9 7 6 6 7 11 9 6 5 9 11 12 12 10 12 13 11 12 21 12 11 11 14 17 25 18 25 24 21 20 17 15 15 14 13 13 12 11
6 7 6 7 8 8 7 8 6 10 9 3 5 12 13 12 12 11 12 13 14 9 13 19 10 11 13 12 16 16 16 24 24 22 20 19 16 16 15 14 14 13 12
7 7 7 7 7 7 7 8 8 7 4 4 9 15 15 14 14 13 14 15 12 11 14 8 7 10 14 13 19 16 16 21 24 22 21 19 18 18 17 15 14 13 12
7 7 7 8 9 7 9 7 8 8 10 11 12 15 20 21 15 14 14 10 9 10 16 10 9 12 15 17 16 13 14 14 13 23 21 21 20 19 18 17 15 14 13
7 7 7 9 11 8 7 8 10 12 8 13 16 18 22 17 18 16 11 13 12 11 12 15 9 9 19 17 17 16 13 11 12 20 22 22 21 20 19 18 16 15 14
8 9 10 7 10 11 10 10 10 8 10 13 15 21 17 19 15 11 11 11 10 12 9 7 11 7 16 15 15 14 13 12 10 19 22 23 22 21 21 19 17 15 14
8 8 9 10 11 13 10 9 9 7 11 13 15 17 20 19 16 12 12 14 13 8 9 9 12 12 16 16 14 15 12 10 11 13 16 17 20 21 21 19 17 15 14
7 8 12 12 9 10 10 8 7 8 12 13 14 16 18 23 34 22 12 12 13 9 6 6 6 12 16 16 17 13 14 12 11 12 11 10 10 9 11 17 14 17 15
7 8 9 10 11 9 20 23 20 12 12 11 11 16 19 25 23 31 30 24 15 12 10 7 9 15 19 17 14 15 14 15 14 10 12 10 10 9 8 8 16 17 16
6 7 9 9 10 11 21 25 25 12 9 10 11 14 17 15 22 16 20 17 24 25 19 10 11 12 17 19 19 18 18 17 12 14 14 10 9 8 8 9 19 18 17
7 7 9 10 9 9 23 25 26 12 7 11 14 14 14 19 19 21 17 12 9 12 14 10 11 9 16 19 21 18 19 15 11 12 14 9 8 6 7 6 19 19 17
6 8 9 9 10 10 20 24 21 7 6 12 13 12 14 17 25 29 18 14 12 10 16 21 18 12 20 25 23 16 16 15 14 13 10 9 9 6 3 4 8 18 16
8 8 10 9 15 10 16 23 18 6 8 9 9 13 21 23 32 32 20 14 12 13 15 15 12 14 18 22 28 20 18 17 16 12 10 8 13 9 4 2 5 7 7
Wind_Direction
350 6 344 347 343 353 357 347 338 329 325 317 252 218 230 226 210 227 239 210 206 197 202 198 205 202 176 176 190 194 186 188 210 199 190 182 182 188 194 200 199 196 197
356 359 344 341 350 357 344 345 332 328 323 320 310 259 227 248 270 236 238 235 211 202 200 213 202 205 202 178 183 186 185 199 212 201 190 192 200 202 191 197 204 211 221
10 341 334 336 340 346 340 327 319 324 323 322 314 303 254 226 245 262 239 235 215 212 206 206 219 196 210 195 181 182 182 189 204 206 200 200 204 207 199 201 212 216 216
11 346 341 328 343 346 336 331 327 333 328 324 323 313 303 235 227 241 245 256 218 209 215 211 216 207 204 207 190 183 180 193 201 204 205 206 201 207 203 203 212 220 226
359 356 335 324 344 348 339 346 339 327 323 315 308 305 298 299 252 241 237 237 248 223 202 211 210 224 206 205 201 192 186 180 199 206 211 208 199 207 204 208 208 222 235
347 337 321 323 335 333 340 331 324 315 334 322 319 313 307 296 284 275 243 233 234 234 221 202 204 210 207 204 205 198 185 184 196 202 208 203 202 205 203 207 213 223 233
320 310 291 307 317 325 314 328 316 318 311 302 315 325 321 311 301 293 279 248 236 229 229 209 200 200 208 208 206 202 196 187 192 199 205 203 199 201 200 205 209 221 223
298 297 309 307 321 317 323 309 307 302 301 304 326 319 318 312 296 294 280 254 242 230 225 228 204 200 197 198 204 199 197 190 190 197 202 201 198 200 201 201 203 210 217
292 301 303 320 307 315 299 289 293 288 301 302 288 254 309 304 320 302 302 308 270 224 224 220 217 200 192 190 193 197 193 191 190 190 197 197 196 196 196 198 202 207 215
290 293 305 292 298 285 291 283 299 284 284 290 290 258 256 282 298 298 289 288 317 261 226 216 212 203 191 182 186 190 186 191 188 184 193 191 195 195 190 193 197 199 211
305 302 296 300 295 285 277 274 287 293 286 284 277 295 279 292 285 278 288 294 291 287 239 224 210 207 189 180 179 185 183 182 185 181 184 185 190 192 188 190 192 192 203
294 291 288 293 284 289 276 278 277 274 279 272 287 271 267 287 292 284 276 281 285 273 302 231 214 214 183 180 176 177 185 176 182 179 174 176 183 187 186 187 191 186 187
278 280 288 291 283 282 287 276 276 281 279 275 273 260 267 274 278 275 275 278 277 280 289 253 208 190 202 178 175 172 182 176 177 177 165 168 173 178 182 183 185 179 177
269 271 279 274 296 286 275 279 279 278 278 274 274 290 281 281 268 260 264 281 271 276 269 266 242 193 212 174 177 169 179 176 175 176 164 160 164 168 175 174 170 168 173
270 265 268 268 267 265 272 273 272 281 275 316 291 286 279 281 269 267 260 252 247 256 265 264 233 199 193 171 170 169 172 173 175 173 162 156 154 157 160 163 161 166 163
261 263 267 264 271 267 266 275 275 276 270 260 303 290 284 281 280 268 258 247 220 228 255 249 286 174 189 168 164 160 162 168 172 170 161 156 154 155 152 153 157 160 158
273 273 277 279 274 269 272 270 273 272 279 284 293 289 287 279 269 263 254 244 235 234 239 255 230 265 178 168 162 151 152 166 173 172 166 155 156 154 149 149 154 154 155
288 283 282 283 283 274 273 269 274 281 283 295 297 295 285 283 263 253 256 231 230 239 232 249 239 258 178 176 160 158 155 166 169 181 172 157 159 151 149 149 155 156 154
285 284 285 285 290 282 276 266 263 270 284 291 283 299 297 297 289 256 249 251 251 234 206 232 274 256 184 164 159 160 155 161 168 174 171 162 161 152 152 152 155 155 151
282 286 295 287 283 280 272 272 265 263 276 286 285 300 301 290 295 271 253 244 243 202 211 215 247 246 167 158 161 157 164 158 167 167 169 164 158 156 153 155 156 157 153
285 292 296 287 285 287 285 284 269 271 283 286 293 307 300 299 310 303 279 222 221 210 203 230 246 227 159 159 169 162 164 155 161 162 155 156 152 156 156 158 159 159 158
288 289 288 296 293 295 300 302 304 293 289 292 298 313 305 307 311 320 300 232 203 202 201 223 257 216 163 162 163 165 163 161 157 175 149 151 148 155 160 156 164 162 162
295 290 289 290 295 289 300 303 302 299 286 292 292 304 302 311 312 309 301 288 221 215 204 203 282 172 171 166 165 167 169 171 166 153 144 141 152 148 163 157 162 162 164
291 289 294 289 287 291 298 303 307 299 287 293 296 297 295 308 309 315 318 276 260 225 217 204 184 260 188 175 170 168 168 156 130 148 155 139 154 141 158 153 163 162 166
291 287 290 291 287 286 295 302 304 301 285 289 298 300 301 301 302 307 307 297 270 219 214 205 209 220 212 175 172 160 168 148 147 156 168 124 154 124 115 111 161 161 162
291 292 294 292 292 299 305 316 309 297 296 292 300 305 304 306 307 309 303 288 273 203 186 198 210 222 205 182 177 168 161 162 154 145 169 128 150 138 122 107 144 156 152